NOAA 16 DEB, 41285

Orbit data source: Space-Track

NOAA 16 DEB, 41285 is space debris in SSO originally from a launch on Thu, 21 Sep 2000 UTC launched from the Air Force Western Test Range (AFWTR). Debris objects in space refer to the collection of defunct objects orbiting the Earth. Examples of debris include non-operational satellites, rocket bodies, and fragments generated from explosions, collisions, or faulty payload assembly.

Loading next visibility...
NOAA 16 DEB details
Identifier
41285, 2000-055GM
Orbit
SSO
Last TLE update1 day ago
Origin
Flag of USNOAA (US)
ManufacturerUnknown
MissionSpacecraft
Bus & MotorUnknown
MassUnknown
Launch date (UTC)
2000-09-21 (24 years ago)
Launch vehicleUnknown
Launch site
Air Force Western Test Range (AFWTR)
Object type
Payload
Rocket body
Debris
Shape & HBRUnknown
Radar Cross SectionSmall (<0.1 m²)

Expand to show TLE details & history

TLE from 1 day ago
0 NOAA 16 DEB
1 41285U 00055GM  24360.62837557  .00008855  00000-0  39493-2 0  9994
2 41285  98.7011  62.4321 0053857 135.6125 224.9388 14.22193377464781
Epoch: 2024-12-25T15:04Z
Definitive object data (Epoch: 2024-12-25T15:04:51.649Z)
Latitude-0.00008°
Longitude101.59751°
Altitude848.405 km
Speed7.414 km/s
True Right ascension04h 09m 43s
True Declination0° 00' 00"
Sunlit
Object was in full shadow at TLE epoch
Visualization TLE readout
Latitude78.97888°
Longitude-25.65721°
Altitude799.21 km
Speed7.477 km/s
Apparent Right ascension11h 59m 04s
Apparent Declination35° 26' 32"
Sunlit
Object is in daylight
Visualization observer readout
Local Sidereal Time23:00:16
Azimuth347.73° N
Elevation-13.434°
Doppler factor1
Orbital elements
Apogee altitude853.84 km
Perigee altitude776.359 km
Semi-major axis7,193.237 km
Eccentricity0.0053857
Inclination98.7011°
RAAN62.4321°
Arg. of periapsis135.6125°
True anomaly224.50494°
Mean anomaly224.9388°
Eccentric anomaly224.72167°
Mean motion3.5576 °/min
BSTAR0.0039493
Orbital period101.19 mins
Loading maneuver chart data...
Loading historical data...
Loading historical data...
Loading historical data...
Loading historical data...
Loading historical data...
Loading historical data...
Loading historical data...

NOAA 16 DEB Visibility forecast

Observer location: undefined°, undefined

Span
Click to sort rows by Start time (UTC) header in descending order
Start Az.
Max El. time (UTC)
Max El. Az.
Max El.
End time (UTC)
End Az.
9 mins2024-12-27 04:20:55.582Z167.359° S2024-12-27 04:24:55.582Z222.833° SW44.881°2024-12-27 04:29:55.582Z345.373° N
8 mins2024-12-27 16:38:55.582Z38.562° NE2024-12-27 16:41:55.582Z88.373° E31.432°2024-12-27 16:46:55.582Z165.89° S
6 mins2024-12-27 18:19:55.582Z329.7° NNW2024-12-27 18:21:55.582Z297.582° NW22.704°2024-12-27 18:25:55.582Z242.887° WSW
|